Weather History for Wittering, United Kingdom

Change the Weather History Date:

Tuesday, January 29, 2013

  Actual Average Record
Temperature  
Mean Temperature 50 °F -  
Max Temperature 57 °F 44 °F 57 °F (2013)
Min Temperature 44 °F 34 °F 26 °F (2001)
Degree Days  
Heating Degree Days 14    
Moisture  
Dew Point 47 °F    
Average Humidity 86    
Maximum Humidity 94    
Minimum Humidity 66    
Precipitation  
Precipitation 0.08 in - - ()
Sea Level Pressure  
Sea Level Pressure 29.49 in    
Wind  
Wind Speed 18 mph ()    
Max Wind Speed 30 mph    
Max Gust Speed 45 mph    
Visibility 6.2 miles    
Events Rain    
Averages and records for this station are not official NWS values.
T = Trace of Precipitation, MM = Missing Value Source: Averaged Metar Reports

Daily Weather History Graph

Daily Weather History Graph

Search for Another Location

Airport:

Trip Planner

Search our weather history database for the weather conditions in past years. The results will help you decide how hot, cold, wet, or windy it might be!

Date:

Astronomy

Jan. 29, 2013 Rise Set
Actual Time 7:48 AM GMT 4:42 PM GMT
Civil Twilight 7:10 AM GMT 5:19 PM GMT
Nautical Twilight 6:29 AM GMT 6:01 PM GMT
Astronomical Twilight 5:49 AM GMT 6:41 PM GMT
Moon 7:52 PM GMT (1/29) 8:12 AM GMT (1/29)
Length of Visible Light 10h 09m
Length of Day
8h 53m
Waning Gibbous, 95% of the Moon is Illuminated
Jan 29
Waning Gibbous
Feb 3
Last Quarter
Feb 10
New
Feb 17
First Quarter
Feb 25
Full

Hourly Weather History & Observations

Time (GMT) Temp. Windchill Dew Point Humidity Pressure Visibility Wind Dir Wind Speed Gust Speed Precip Events Conditions
12:50 AM 50.0 °F - 41.0 °F 71% 29.44 in 6.2 mi SW 27.6 mph - N/A   Overcast
1:50 AM 50.0 °F - 41.0 °F 71% 29.47 in 6.2 mi WSW 29.9 mph 44.9 mph N/A   Mostly Cloudy
2:50 AM 49 °F - 41 °F 66% 29.52 in 9 mi SW 21.9 mph - -   Scattered Clouds
2:50 AM 50.0 °F - 41.0 °F 71% 29.50 in 6.2 mi SW 21.9 mph - N/A   Partly Cloudy
3:50 AM 48.2 °F - 42.8 °F 82% 29.50 in 6.2 mi WSW 23.0 mph - N/A   Unknown
4:50 AM 48.2 °F - 42.8 °F 82% 29.50 in 6.2 mi WSW 19.6 mph - N/A   Unknown
5:50 AM 47 °F - 42 °F 76% 29.56 in 16 mi WSW 12.7 mph - -  
5:50 AM 48.2 °F - 42.8 °F 82% 29.53 in 6.2 mi WSW 12.7 mph - N/A   Unknown
6:50 AM 46.4 °F 41.1 °F 42.8 °F 87% 29.53 in 6.2 mi SW 11.5 mph - N/A   Partly Cloudy
7:50 AM 44.6 °F 39.2 °F 42.8 °F 93% 29.56 in 6.2 mi SSW 10.4 mph - N/A   Mostly Cloudy
8:50 AM 46 °F - 43 °F 87% 29.57 in 25 mi SSW 8.1 mph - -   Scattered Clouds
8:50 AM 46.4 °F 42.4 °F 42.8 °F 87% 29.56 in 6.2 mi SSW 8.1 mph - N/A   Partly Cloudy
9:50 AM 48.2 °F - 44.6 °F 87% 29.56 in 6.2 mi South 12.7 mph - N/A   Mostly Cloudy
10:50 AM 48.2 °F - 46.4 °F 93% 29.56 in 6.2 mi South 11.5 mph - N/A   Mostly Cloudy
11:50 AM 50 °F - 48 °F 89% 29.54 in 22 mi South 11.5 mph - - Rain Rain
11:50 AM 50.0 °F - 48.2 °F 94% 29.53 in 6.2 mi South 11.5 mph - N/A   Overcast
12:50 PM 53.6 °F - 51.8 °F 94% 29.50 in 6.2 mi SW 17.3 mph - N/A   Overcast
1:50 PM 55.4 °F - 51.8 °F 88% 29.50 in - SW 19.6 mph - N/A   Scattered Clouds
2:50 PM 56 °F - 52 °F 82% 29.48 in - SSW 19.6 mph - -   Mostly Cloudy
2:50 PM 55.4 °F - 51.8 °F 88% 29.47 in - SSW 19.6 mph - N/A   Mostly Cloudy
3:50 PM 55.4 °F - 51.8 °F 88% 29.44 in 6.2 mi SSW 20.7 mph - N/A Rain Light Rain Showers
4:50 PM 57.2 °F - 51.8 °F 82% 29.44 in 6.2 mi SW 26.5 mph - N/A   Mostly Cloudy
5:50 PM 56 °F - 51 °F 79% 29.43 in 47 mi SW 26.5 mph - - Rain Rain
5:50 PM 57.2 °F - 51.8 °F 82% 29.42 in 6.2 mi SW 26.5 mph - N/A   Mostly Cloudy
6:50 PM 55.4 °F - 51.8 °F 88% 29.42 in 6.2 mi SW 25.3 mph - N/A   Mostly Cloudy
7:50 PM 53.6 °F - 51.8 °F 94% 29.42 in 6.2 mi SSW 25.3 mph - N/A Rain Light Rain Showers
8:50 PM 54 °F - 53 °F 93% 29.44 in 3 mi SSW 21.9 mph - - Rain Heavy Rain
8:50 PM 53.6 °F - 51.8 °F 94% 29.42 in 3.1 mi SSW 21.9 mph 34.5 mph N/A Rain Rain
9:50 PM 53.6 °F - 51.8 °F 94% 29.42 in 3.7 mi SW 18.4 mph - N/A   Drizzle
10:50 PM 53.6 °F - 51.8 °F 94% 29.42 in 6.2 mi SW 17.3 mph - N/A Rain Rain
11:50 PM 52 °F - 50 °F 92% 29.46 in 4 mi WSW 21.9 mph - - Rain Rain
11:50 PM 51.8 °F - 50.0 °F 94% 29.44 in 3.7 mi WSW 21.9 mph - N/A Rain Rain